This demonstration page uses our WeatherBlox Daily Observations layout. Learn more.

Left ArrowRight Arrow

41.55636, -103.73856

Hourly Observations for May 16, 2022

Temp ( °F °C ) Dew Point ( °F °C ) Humidity (%) Winds ( mph kmh ) Pressure ( in mb ) Visibility ( mi km ) Precip ( " mm )
12:58 am 00:58 Clear 51 10.6 33 0.3 49 49 SSE 13 20 30.02 1017 10 16 0.00 0.00
1:58 am 01:58 Clear 49 9.3 32 -0.1 52 52 S 5 7 30.02 1017 10 16 0.00 0.00
2:58 am 02:58 Clear 50 10.2 31 -0.6 47 47 E 7 11 29.99 1015 10 16 0.00 0.00
3:58 am 03:58 Clear 51 10.5 31 -0.6 46 46 SSE 8 13 29.93 1013 10 16 0.00 0.00
4:58 am 04:58 Clear 51 10.5 30 -0.9 45 45 Calm 29.91 1013 10 16 0.00 0.00
5:58 am 05:58 Sunny 54 12.3 31 -0.6 41 41 S 6 9 29.88 1012 10 16 0.00 0.00
6:58 am 06:58 Sunny 56 13.6 33 0.6 41 41 SSW 20 31 29.86 1011 10 16 0.00 0.00
7:58 am 07:58 Sunny 60 15.6 36 2.4 41 41 SSW 24 39 29.86 1011 10 16 0.00 0.00
8:58 am 08:58 Sunny 66 18.9 37 2.7 34 34 SW 16 26 29.86 1011 10 16 0.00 0.00
9:58 am 09:58 Sunny 71 21.9 39 4 31 31 SW 6 9 29.83 1010 10 16 0.00 0.00
10:58 am 10:58 Sunny 77 25 39 4.1 26 26 SW 12 19 29.80 1009 10 16 0.00 0.00
11:58 am 11:58 Sunny 79 26.1 37 2.7 22 22 S 6 9 29.79 1009 10 16 0.00 0.00
12:58 pm 12:58 Sunny 82 27.6 37 2.6 20 20 E 6 9 29.75 1008 10 16 0.00 0.00
1:58 pm 13:58 Sunny 83 28.6 38 3.4 20 20 ESE 9 15 29.73 1007 10 16 0.00 0.00
2:58 pm 14:58 Sunny 82 27.7 39 4 22 22 SSE 10 17 29.71 1006 10 16 0.00 0.00
3:58 pm 15:58 Mostly Sunny 81 27.4 35 1.7 19 19 S 16 26 29.70 1006 10 16 0.00 0.00
4:58 pm 16:58 Sunny 78 25.6 34 1 20 20 SSW 20 31 29.71 1006 10 16 0.00 0.00
5:58 pm 17:58 Mostly Cloudy 74 23.5 37 2.9 26 26 SSW 10 17 29.70 1006 10 16 0.00 0.00
6:58 pm 18:58 Mostly Cloudy 73 22.5 37 2.6 27 27 SSE 6 9 29.69 1006 10 16 0.00 0.00
7:58 pm 19:58 Mostly Sunny 68 20.1 40 4.6 36 36 E 5 7 29.72 1007 10 16 0.00 0.00
8:58 pm 20:58 Mostly Clear 66 18.9 37 2.7 34 34 SE 15 24 29.72 1007 10 16 0.00 0.00
9:58 pm 21:58 Mostly Cloudy with Nearby Thunderstorms 66 19 38 3.2 35 35 SE 14 22 29.66 1004 10 16 0.00 0.00
10:58 pm 22:58 Cloudy 67 19.3 39 3.8 36 36 S 20 31 29.68 1005 10 16 0.00 0.00
11:58 pm 23:58 Cloudy 65 18.2 40 4.4 40 40 S 12 19 29.70 1006 10 16 0.00 0.00

Powered by AerisWeather